Flag for US Virgin Islands Weather past 2 weeks in Charlotte Amalie, US Virgin Islands

Now
80 °F

Partly sunny.


Feels Like: 84 °F
Forecast: 77 / 84 °F
Wind: 18 mph from Southeast

Location: Cyril E. King International Airport


UV Index: 10 (Very high)

Visibility: 10 mi


Pressure: 30.08 "Hg

Humidity: 76%

Dew point: 72 °F

Location of Charlotte AmalieLocation

Historic Weather in Charlotte Amalie

°F

Charlotte Amalie temperature yesterday

Maximum temperature yesterday: 84 °F (at 9:53 AM)
Minimum temperature yesterday: 76 °F (at 5:53 AM)
Average temperature yesterday: 80 °F

Past Weeks' High & Low Weather Summary

 TemperatureHumidityPressure
High85 °F (Apr 8, 1:53 PM)100% (Apr 11, 9:13 AM)30.14 "Hg (Apr 11, 9:13 AM)
Low73 °F (Apr 12, 2:53 AM)53% (Apr 12, 10:53 AM)29.90 "Hg (Apr 15, 3:53 PM)
Average79 °F76%30.03 "Hg
* Reported Apr 4 12:02 PM — Apr 19 12:53 PM, Charlotte Amalie, Weather by CustomWeather, © 2014

Note: Actual official high and low records may vary slightly from our data, if they occured in-between our weather recording intervals... More about our weather records

Advertising

Historic Weather Conditions — Data for Previous 24 hours

 ConditionsComfort  
Time TempWeatherWind HumidityBarometerVisibility
12:53 PM
Apr 19
80 °FPartly sunny.18 mph76%30.08 "Hg10 mi
11:53 AM84 °FScattered clouds.17 mph63%30.08 "Hg10 mi
11:29 AM82 °FBroken clouds.14 mph74%30.08 "Hg10 mi
11:20 AM81 °FLight rain. Broken clouds.16 mph79%30.08 "Hg10 mi
10:53 AM83 °FBroken clouds.16 mph72%30.09 "Hg10 mi
9:53 AM82 °FPassing clouds.20 mph67%30.09 "Hg10 mi
8:53 AM82 °FPassing clouds.18 mph72%30.07 "Hg10 mi
7:53 AM80 °FPassing clouds.17 mph74%30.06 "Hg10 mi
6:53 AM77 °FScattered clouds.10 mph88%30.05 "Hg10 mi
5:53 AM76 °FClear.10 mph88%30.03 "Hg10 mi
4:53 AM76 °FPartly cloudy.12 mph91%30.02 "Hg10 mi
3:53 AM77 °FPassing clouds.13 mph82%30.01 "Hg10 mi
2:53 AM77 °FClear.10 mph82%30.01 "Hg10 mi
1:53 AM77 °FClear.10 mph82%30.02 "Hg10 mi
12:53 AM77 °FClear.10 mph85%30.03 "Hg10 mi
11:53 PM
Apr 18
78 °FPassing clouds.18 mph76%30.04 "Hg10 mi
10:53 PM78 °FClear.15 mph79%30.06 "Hg10 mi
9:53 PM77 °FPassing clouds.18 mph85%30.06 "Hg10 mi
8:53 PM78 °FPassing clouds.16 mph79%30.05 "Hg10 mi
6:53 PM79 °FClear.14 mph74%30.02 "Hg10 mi
5:53 PM80 °FSunny.18 mph69%30.01 "Hg10 mi
4:53 PM84 °FSunny.15 mph61%30.01 "Hg10 mi
3:53 PM84 °FPassing clouds.17 mph61%30.01 "Hg10 mi
2:53 PM82 °FPartly sunny.17 mph65%30.01 "Hg10 mi
1:53 PM83 °FCloudy.16 mph63%30.03 "Hg10 mi
Weather by CustomWeather, © 2014

See weather overview